Precipitable_Water
1.41 1.40 1.41 1.37 1.33 1.30 1.30 1.32 1.30 1.32 1.31 1.33 1.31 1.30 1.32 1.34 1.33 1.32 1.33 1.32 1.35 1.37 1.36 1.36 1.36 1.35 1.35 1.35 1.34 1.34 1.35 1.35 1.37 1.34 1.27 1.16 1.10 1.06 1.09 1.14 1.10 1.09 1.10 1.10 1.15 1.15 1.14 1.13 1.14 1.14 1.13 1.09 1.15 1.24 1.25 1.22 1.20 1.17 1.16 1.14 1.11 1.13 1.10 1.03 0.93 0.88 0.96 1.09 1.08 1.09 1.18 1.20 1.14 1.18 1.14 1.15 1.16 1.18 1.19 1.18 1.17 1.16 1.18 1.20 1.22
1.37 1.40 1.42 1.39 1.33 1.30 1.30 1.33 1.33 1.31 1.29 1.31 1.30 1.31 1.31 1.32 1.33 1.34 1.28 1.30 1.35 1.35 1.34 1.35 1.36 1.37 1.35 1.34 1.33 1.34 1.36 1.35 1.35 1.35 1.31 1.23 1.13 1.10 1.09 1.11 1.10 1.09 1.09 1.07 1.12 1.15 1.15 1.13 1.12 1.14 1.15 1.10 1.15 1.20 1.25 1.25 1.20 1.13 1.10 1.07 1.06 1.09 1.19 1.11 1.05 0.98 0.89 1.04 1.08 1.18 1.17 1.24 1.13 1.23 1.18 1.18 1.19 1.21 1.15 1.11 1.12 1.14 1.12 1.11 1.09
1.41 1.42 1.41 1.38 1.36 1.35 1.34 1.33 1.33 1.31 1.28 1.28 1.27 1.28 1.29 1.31 1.34 1.29 1.27 1.30 1.35 1.36 1.35 1.36 1.36 1.36 1.34 1.33 1.33 1.33 1.34 1.34 1.35 1.35 1.34 1.28 1.16 1.08 1.07 1.08 1.08 1.07 1.07 1.09 1.11 1.12 1.12 1.11 1.12 1.14 1.13 1.10 1.15 1.21 1.28 1.27 1.26 1.17 1.11 1.12 1.07 1.09 1.17 1.20 1.13 1.04 0.99 1.01 1.13 1.12 1.14 1.21 1.19 1.21 1.27 1.30 1.32 1.31 1.21 1.10 1.02 1.00 1.00 0.99 0.99
1.42 1.43 1.41 1.39 1.37 1.34 1.32 1.33 1.33 1.32 1.27 1.25 1.24 1.26 1.29 1.30 1.34 1.31 1.29 1.32 1.32 1.35 1.38 1.37 1.37 1.35 1.32 1.31 1.33 1.32 1.33 1.34 1.36 1.37 1.36 1.33 1.23 1.10 1.06 1.06 1.07 1.08 1.08 1.11 1.14 1.13 1.09 1.08 1.09 1.10 1.10 1.10 1.15 1.20 1.26 1.30 1.29 1.25 1.20 1.17 1.15 1.14 1.21 1.26 1.26 1.16 1.12 1.08 1.15 1.17 1.21 1.19 1.23 1.30 1.33 1.36 1.34 1.30 1.24 1.14 1.05 0.97 0.95 0.95 0.96
1.42 1.41 1.41 1.39 1.38 1.33 1.30 1.32 1.30 1.29 1.25 1.23 1.22 1.26 1.29 1.31 1.33 1.30 1.31 1.32 1.33 1.35 1.36 1.38 1.36 1.34 1.31 1.31 1.32 1.31 1.31 1.34 1.35 1.37 1.38 1.37 1.30 1.19 1.10 1.06 1.05 1.07 1.10 1.12 1.16 1.15 1.12 1.08 1.08 1.08 1.08 1.09 1.15 1.20 1.25 1.27 1.28 1.26 1.21 1.21 1.19 1.20 1.25 1.29 1.27 1.25 1.20 1.14 1.15 1.23 1.27 1.26 1.28 1.30 1.34 1.29 1.30 1.31 1.27 1.14 1.03 0.96 0.94 0.97 0.98
1.42 1.41 1.40 1.37 1.36 1.33 1.29 1.28 1.26 1.25 1.24 1.22 1.22 1.25 1.29 1.31 1.30 1.31 1.33 1.30 1.33 1.36 1.34 1.36 1.34 1.32 1.34 1.35 1.34 1.33 1.35 1.37 1.37 1.37 1.38 1.38 1.36 1.32 1.24 1.17 1.12 1.15 1.17 1.16 1.18 1.17 1.12 1.11 1.10 1.09 1.08 1.08 1.12 1.19 1.24 1.24 1.25 1.23 1.20 1.20 1.20 1.21 1.22 1.26 1.27 1.26 1.24 1.20 1.18 1.16 1.24 1.22 1.22 1.25 1.31 1.33 1.28 1.24 1.20 1.14 1.07 0.99 0.95 0.92 0.95
1.44 1.41 1.40 1.36 1.33 1.31 1.28 1.24 1.23 1.23 1.24 1.23 1.24 1.26 1.28 1.30 1.29 1.27 1.33 1.33 1.33 1.34 1.36 1.35 1.37 1.36 1.38 1.40 1.38 1.38 1.39 1.42 1.43 1.44 1.44 1.43 1.43 1.42 1.39 1.34 1.27 1.23 1.20 1.21 1.23 1.17 1.11 1.11 1.12 1.11 1.10 1.13 1.17 1.20 1.22 1.22 1.23 1.22 1.23 1.24 1.25 1.24 1.22 1.23 1.26 1.26 1.24 1.20 1.19 1.20 1.19 1.24 1.24 1.17 1.29 1.37 1.34 1.29 1.17 1.06 0.96 0.97 0.99 0.97 0.94
1.45 1.42 1.39 1.35 1.31 1.29 1.29 1.27 1.24 1.23 1.26 1.28 1.27 1.26 1.28 1.28 1.28 1.30 1.34 1.34 1.34 1.35 1.35 1.35 1.39 1.43 1.43 1.43 1.45 1.47 1.47 1.48 1.49 1.50 1.51 1.52 1.52 1.52 1.52 1.48 1.42 1.32 1.24 1.21 1.24 1.20 1.14 1.12 1.13 1.14 1.13 1.17 1.22 1.25 1.24 1.22 1.26 1.24 1.30 1.31 1.30 1.28 1.25 1.26 1.27 1.26 1.22 1.19 1.16 1.15 1.19 1.18 1.21 1.27 1.32 1.32 1.24 1.20 1.18 1.07 0.90 0.86 0.91 1.01 1.04
1.46 1.44 1.40 1.32 1.29 1.30 1.30 1.30 1.28 1.25 1.25 1.27 1.27 1.27 1.27 1.28 1.30 1.32 1.34 1.35 1.37 1.38 1.40 1.41 1.42 1.43 1.46 1.47 1.48 1.51 1.50 1.51 1.53 1.54 1.55 1.58 1.61 1.60 1.60 1.58 1.53 1.45 1.29 1.17 1.22 1.24 1.17 1.12 1.13 1.15 1.16 1.18 1.24 1.28 1.27 1.29 1.28 1.26 1.31 1.34 1.31 1.29 1.27 1.26 1.25 1.24 1.22 1.19 1.16 1.20 1.19 1.16 1.17 1.18 1.19 1.17 1.12 1.07 1.09 1.06 0.95 0.95 0.96 0.93 0.97
1.43 1.43 1.38 1.32 1.33 1.35 1.33 1.29 1.26 1.25 1.24 1.23 1.25 1.26 1.27 1.28 1.30 1.31 1.33 1.36 1.38 1.42 1.44 1.46 1.46 1.44 1.45 1.48 1.51 1.52 1.53 1.56 1.58 1.61 1.64 1.66 1.67 1.67 1.64 1.60 1.59 1.58 1.46 1.28 1.19 1.21 1.18 1.14 1.13 1.15 1.16 1.17 1.20 1.26 1.29 1.32 1.37 1.38 1.36 1.36 1.33 1.26 1.23 1.23 1.24 1.23 1.20 1.17 1.15 1.16 1.13 1.12 1.15 1.20 1.18 1.16 1.17 1.16 1.05 0.98 0.90 0.91 0.91 0.87 0.87
1.41 1.40 1.36 1.37 1.39 1.38 1.34 1.29 1.26 1.22 1.21 1.23 1.25 1.26 1.26 1.29 1.31 1.32 1.34 1.37 1.39 1.44 1.46 1.46 1.46 1.49 1.50 1.51 1.52 1.53 1.56 1.60 1.63 1.65 1.69 1.72 1.72 1.67 1.60 1.58 1.60 1.60 1.54 1.39 1.20 1.15 1.17 1.18 1.14 1.15 1.16 1.15 1.19 1.26 1.31 1.36 1.39 1.41 1.43 1.43 1.38 1.29 1.25 1.25 1.25 1.26 1.22 1.19 1.19 1.19 1.17 1.16 1.22 1.29 1.23 1.15 1.11 1.05 1.02 1.01 0.95 0.91 0.85 0.79 0.72
1.35 1.36 1.38 1.44 1.44 1.39 1.34 1.30 1.25 1.20 1.22 1.22 1.24 1.26 1.29 1.31 1.32 1.33 1.34 1.36 1.41 1.47 1.47 1.47 1.50 1.53 1.55 1.56 1.55 1.56 1.59 1.64 1.65 1.68 1.73 1.74 1.74 1.73 1.67 1.59 1.59 1.59 1.56 1.47 1.33 1.26 1.19 1.15 1.17 1.16 1.14 1.15 1.20 1.29 1.36 1.41 1.43 1.45 1.48 1.48 1.43 1.40 1.42 1.37 1.30 1.26 1.26 1.21 1.21 1.22 1.22 1.24 1.29 1.27 1.18 1.14 1.09 1.06 1.05 1.01 0.96 0.90 0.87 0.84 0.81
1.31 1.33 1.39 1.43 1.43 1.41 1.38 1.31 1.24 1.20 1.20 1.22 1.27 1.30 1.30 1.30 1.32 1.33 1.33 1.38 1.44 1.45 1.47 1.50 1.51 1.55 1.56 1.54 1.54 1.58 1.61 1.65 1.67 1.71 1.76 1.77 1.80 1.78 1.71 1.62 1.57 1.58 1.55 1.49 1.41 1.34 1.24 1.19 1.20 1.19 1.15 1.18 1.25 1.29 1.33 1.38 1.42 1.43 1.45 1.46 1.43 1.39 1.40 1.44 1.44 1.40 1.38 1.31 1.25 1.27 1.31 1.34 1.24 1.17 1.19 1.16 1.15 1.02 1.01 0.99 0.98 0.96 0.93 0.87 0.84
1.31 1.33 1.38 1.41 1.43 1.42 1.40 1.34 1.25 1.20 1.21 1.25 1.30 1.30 1.30 1.29 1.32 1.36 1.38 1.42 1.43 1.45 1.49 1.50 1.53 1.54 1.55 1.54 1.56 1.60 1.62 1.65 1.69 1.75 1.80 1.81 1.82 1.79 1.71 1.62 1.59 1.60 1.58 1.53 1.47 1.42 1.34 1.25 1.21 1.17 1.15 1.17 1.25 1.30 1.32 1.36 1.38 1.37 1.33 1.32 1.34 1.38 1.44 1.45 1.47 1.48 1.47 1.47 1.42 1.33 1.40 1.40 1.23 1.18 1.21 1.21 1.11 1.03 1.00 0.97 0.99 0.96 0.92 0.88 0.90
1.30 1.34 1.37 1.40 1.44 1.44 1.41 1.37 1.28 1.23 1.24 1.27 1.30 1.30 1.30 1.32 1.35 1.38 1.40 1.40 1.42 1.43 1.46 1.48 1.53 1.56 1.58 1.60 1.60 1.59 1.63 1.68 1.73 1.79 1.83 1.84 1.84 1.81 1.72 1.62 1.59 1.61 1.62 1.57 1.51 1.50 1.44 1.34 1.26 1.21 1.15 1.13 1.22 1.28 1.31 1.36 1.38 1.35 1.30 1.27 1.30 1.42 1.49 1.48 1.47 1.48 1.52 1.45 1.41 1.42 1.42 1.40 1.31 1.25 1.22 1.22 1.16 1.13 1.11 1.07 1.05 1.00 0.97 0.95 0.90
1.28 1.34 1.36 1.39 1.42 1.44 1.41 1.37 1.33 1.29 1.26 1.27 1.28 1.29 1.32 1.34 1.34 1.40 1.42 1.45 1.48 1.51 1.54 1.57 1.56 1.58 1.61 1.63 1.61 1.57 1.64 1.71 1.77 1.82 1.84 1.85 1.84 1.79 1.73 1.64 1.60 1.62 1.60 1.57 1.54 1.53 1.51 1.43 1.32 1.25 1.18 1.14 1.21 1.27 1.33 1.39 1.38 1.37 1.34 1.35 1.41 1.49 1.51 1.54 1.55 1.56 1.54 1.46 1.44 1.45 1.43 1.39 1.32 1.26 1.24 1.22 1.19 1.18 1.17 1.14 1.07 0.98 0.89 0.81 0.76
1.25 1.30 1.33 1.38 1.41 1.44 1.44 1.39 1.36 1.33 1.29 1.26 1.25 1.29 1.32 1.36 1.40 1.46 1.44 1.46 1.47 1.49 1.51 1.56 1.61 1.61 1.62 1.64 1.59 1.58 1.64 1.71 1.76 1.78 1.79 1.80 1.81 1.75 1.67 1.63 1.62 1.61 1.57 1.57 1.56 1.55 1.54 1.49 1.39 1.28 1.20 1.16 1.23 1.33 1.41 1.43 1.40 1.39 1.36 1.34 1.39 1.46 1.48 1.55 1.52 1.53 1.53 1.51 1.49 1.46 1.42 1.35 1.31 1.27 1.25 1.23 1.19 1.15 1.07 0.96 0.89 0.90 0.82 0.76 0.78
1.17 1.25 1.30 1.36 1.41 1.45 1.47 1.45 1.40 1.37 1.33 1.26 1.25 1.30 1.37 1.42 1.44 1.48 1.44 1.45 1.46 1.50 1.56 1.61 1.65 1.67 1.66 1.63 1.60 1.57 1.61 1.68 1.72 1.74 1.76 1.79 1.80 1.74 1.69 1.64 1.60 1.58 1.55 1.55 1.55 1.55 1.54 1.49 1.40 1.28 1.19 1.19 1.29 1.37 1.38 1.39 1.38 1.36 1.34 1.36 1.40 1.41 1.44 1.49 1.44 1.43 1.45 1.43 1.39 1.34 1.30 1.28 1.26 1.22 1.18 1.15 1.12 1.10 1.00 0.87 0.90 0.90 0.84 0.82 0.76
1.11 1.15 1.23 1.33 1.41 1.47 1.51 1.51 1.48 1.43 1.35 1.31 1.32 1.33 1.36 1.40 1.48 1.54 1.53 1.53 1.53 1.59 1.63 1.63 1.65 1.69 1.69 1.63 1.63 1.61 1.62 1.67 1.71 1.72 1.75 1.77 1.77 1.72 1.67 1.61 1.57 1.53 1.51 1.50 1.53 1.53 1.50 1.46 1.39 1.30 1.24 1.26 1.30 1.28 1.30 1.34 1.34 1.32 1.36 1.40 1.36 1.32 1.38 1.45 1.38 1.35 1.36 1.26 1.21 1.23 1.25 1.25 1.21 1.15 1.10 1.07 1.05 1.03 1.00 0.97 0.98 0.91 0.82 0.80 0.78
1.11 1.13 1.18 1.30 1.43 1.51 1.55 1.54 1.53 1.48 1.41 1.39 1.41 1.41 1.46 1.49 1.53 1.54 1.56 1.57 1.58 1.62 1.65 1.66 1.65 1.66 1.65 1.63 1.62 1.65 1.66 1.68 1.71 1.73 1.73 1.73 1.76 1.70 1.63 1.55 1.50 1.48 1.49 1.49 1.46 1.46 1.43 1.39 1.36 1.31 1.28 1.28 1.26 1.25 1.27 1.34 1.31 1.33 1.39 1.36 1.34 1.32 1.46 1.43 1.39 1.36 1.26 1.18 1.19 1.22 1.18 1.14 1.08 1.04 1.01 0.99 0.99 1.03 1.03 1.01 0.97 0.92 0.84 0.80 0.79
1.16 1.17 1.23 1.29 1.34 1.42 1.52 1.56 1.55 1.55 1.52 1.49 1.51 1.54 1.56 1.53 1.55 1.57 1.57 1.61 1.64 1.65 1.67 1.69 1.68 1.63 1.62 1.63 1.65 1.70 1.71 1.69 1.71 1.73 1.75 1.76 1.76 1.69 1.59 1.55 1.56 1.52 1.48 1.45 1.41 1.37 1.36 1.33 1.32 1.33 1.33 1.26 1.21 1.26 1.29 1.31 1.37 1.39 1.45 1.44 1.44 1.47 1.46 1.41 1.33 1.26 1.20 1.19 1.17 1.12 1.05 0.99 0.95 0.95 0.94 0.93 0.94 0.97 0.95 0.95 0.93 0.92 0.87 0.82 0.79
1.27 1.29 1.30 1.30 1.33 1.37 1.43 1.52 1.59 1.61 1.63 1.63 1.60 1.58 1.63 1.65 1.62 1.61 1.62 1.63 1.64 1.65 1.68 1.68 1.62 1.56 1.57 1.60 1.65 1.68 1.69 1.68 1.69 1.70 1.71 1.71 1.68 1.65 1.60 1.58 1.59 1.52 1.44 1.40 1.37 1.34 1.33 1.32 1.30 1.30 1.24 1.20 1.24 1.25 1.27 1.31 1.43 1.51 1.50 1.45 1.48 1.41 1.35 1.32 1.29 1.23 1.18 1.14 1.06 0.95 0.90 0.89 0.88 0.87 0.86 0.88 0.91 0.93 0.92 0.93 0.94 0.93 0.92 0.86 0.78
1.33 1.35 1.35 1.35 1.35 1.36 1.40 1.48 1.57 1.64 1.66 1.67 1.63 1.61 1.67 1.70 1.71 1.69 1.66 1.66 1.66 1.66 1.66 1.62 1.53 1.51 1.51 1.56 1.60 1.61 1.62 1.63 1.62 1.60 1.62 1.64 1.65 1.64 1.63 1.60 1.58 1.53 1.44 1.37 1.34 1.33 1.34 1.32 1.32 1.29 1.21 1.21 1.22 1.26 1.33 1.40 1.51 1.43 1.37 1.37 1.41 1.37 1.30 1.24 1.18 1.15 1.09 0.99 0.90 0.85 0.85 0.85 0.81 0.80 0.84 0.87 0.92 0.93 0.92 0.92 0.91 0.89 0.84 0.80 0.77
1.33 1.34 1.36 1.39 1.41 1.44 1.46 1.50 1.60 1.67 1.69 1.72 1.70 1.67 1.69 1.72 1.72 1.70 1.69 1.68 1.66 1.64 1.61 1.54 1.49 1.45 1.42 1.45 1.49 1.50 1.52 1.52 1.50 1.51 1.56 1.58 1.60 1.60 1.58 1.58 1.56 1.49 1.44 1.38 1.36 1.32 1.31 1.31 1.28 1.24 1.20 1.21 1.29 1.39 1.42 1.42 1.39 1.40 1.38 1.37 1.34 1.28 1.21 1.17 1.13 1.03 0.93 0.87 0.84 0.83 0.81 0.81 0.81 0.83 0.87 0.91 0.90 0.90 0.90 0.89 0.85 0.82 0.78 0.75 0.72
1.38 1.37 1.39 1.45 1.50 1.54 1.55 1.56 1.60 1.67 1.73 1.74 1.71 1.71 1.73 1.74 1.69 1.72 1.71 1.69 1.67 1.59 1.51 1.48 1.43 1.38 1.38 1.38 1.37 1.39 1.42 1.43 1.42 1.46 1.49 1.52 1.53 1.54 1.52 1.52 1.49 1.47 1.41 1.40 1.38 1.35 1.32 1.30 1.26 1.24 1.28 1.36 1.41 1.43 1.41 1.38 1.41 1.40 1.36 1.27 1.23 1.20 1.14 1.05 0.96 0.90 0.85 0.82 0.81 0.81 0.81 0.82 0.85 0.89 0.94 0.92 0.91 0.89 0.84 0.81 0.80 0.78 0.77 0.75 0.71
1.55 1.48 1.50 1.54 1.61 1.62 1.59 1.59 1.62 1.69 1.74 1.80 1.79 1.79 1.76 1.75 1.73 1.72 1.70 1.66 1.61 1.52 1.44 1.39 1.35 1.34 1.31 1.32 1.32 1.32 1.34 1.34 1.37 1.43 1.48 1.49 1.50 1.48 1.48 1.48 1.43 1.43 1.42 1.38 1.36 1.34 1.32 1.31 1.33 1.36 1.37 1.39 1.40 1.36 1.32 1.35 1.32 1.27 1.23 1.20 1.16 1.08 1.00 0.94 0.90 0.87 0.83 0.82 0.82 0.81 0.83 0.87 0.90 0.95 0.93 0.90 0.84 0.80 0.77 0.74 0.73 0.72 0.71 0.67 0.63
1.93 1.78 1.65 1.68 1.69 1.70 1.63 1.59 1.60 1.67 1.75 1.81 1.87 1.89 1.88 1.84 1.79 1.72 1.67 1.58 1.50 1.43 1.38 1.32 1.29 1.26 1.26 1.28 1.28 1.27 1.27 1.30 1.35 1.41 1.45 1.44 1.44 1.47 1.47 1.41 1.38 1.39 1.36 1.34 1.33 1.30 1.30 1.32 1.33 1.34 1.35 1.36 1.35 1.34 1.30 1.28 1.22 1.18 1.16 1.10 1.03 0.98 0.96 0.93 0.90 0.86 0.85 0.84 0.84 0.86 0.87 0.89 0.92 0.91 0.87 0.83 0.78 0.77 0.75 0.71 0.68 0.67 0.65 0.63 0.58
1.93 2.01 2.04 1.89 1.77 1.76 1.70 1.66 1.60 1.63 1.72 1.78 1.82 1.87 1.92 1.90 1.80 1.69 1.57 1.46 1.36 1.30 1.27 1.25 1.23 1.23 1.21 1.21 1.23 1.25 1.27 1.32 1.36 1.39 1.39 1.37 1.40 1.43 1.38 1.33 1.30 1.29 1.28 1.29 1.29 1.29 1.28 1.28 1.29 1.29 1.29 1.28 1.26 1.23 1.20 1.17 1.15 1.11 1.03 1.00 0.98 0.98 0.97 0.98 0.96 0.92 0.90 0.90 0.88 0.87 0.86 0.86 0.84 0.84 0.83 0.79 0.76 0.73 0.71 0.68 0.65 0.62 0.60 0.57 0.49
1.91 2.05 2.19 2.20 2.08 1.95 1.85 1.74 1.66 1.69 1.74 1.86 1.94 2.00 1.95 1.89 1.77 1.58 1.51 1.44 1.36 1.28 1.24 1.25 1.28 1.28 1.25 1.26 1.25 1.23 1.30 1.33 1.40 1.46 1.43 1.43 1.41 1.36 1.30 1.26 1.25 1.24 1.25 1.25 1.24 1.24 1.23 1.21 1.20 1.20 1.18 1.14 1.10 1.08 1.08 1.07 1.02 1.00 0.98 0.97 0.97 0.96 0.95 0.94 0.89 0.87 0.89 0.87 0.83 0.81 0.81 0.82 0.82 0.82 0.78 0.74 0.70 0.67 0.67 0.64 0.62 0.58 0.56 0.52 0.45
1.64 1.85 2.12 2.23 2.11 2.07 1.97 1.84 1.81 1.83 1.86 1.89 1.91 1.95 2.02 1.84 1.57 1.39 1.37 1.44 1.45 1.46 1.43 1.33 1.32 1.35 1.34 1.37 1.39 1.35 1.37 1.49 1.51 1.46 1.43 1.45 1.45 1.41 1.37 1.32 1.29 1.26 1.23 1.22 1.20 1.15 1.14 1.13 1.13 1.14 1.14 1.07 1.03 1.01 0.98 0.96 0.95 0.95 0.97 0.98 0.99 0.97 0.96 0.94 0.90 0.88 0.87 0.84 0.83 0.82 0.82 0.83 0.80 0.75 0.70 0.66 0.64 0.64 0.63 0.61 0.57 0.57 0.52 0.47 0.41
1.41 1.55 1.71 1.85 1.88 1.84 1.89 1.97 1.90 1.84 1.85 1.93 1.89 1.87 1.60 1.45 1.47 1.48 1.46 1.44 1.45 1.44 1.42 1.46 1.49 1.49 1.43 1.39 1.49 1.56 1.56 1.54 1.49 1.47 1.45 1.44 1.42 1.37 1.32 1.30 1.27 1.24 1.23 1.19 1.13 1.09 1.08 1.07 1.14 1.20 1.13 1.05 0.99 0.96 0.96 0.95 0.94 0.95 0.96 0.98 1.00 0.99 0.97 0.93 0.91 0.89 0.86 0.84 0.85 0.84 0.81 0.76 0.69 0.67 0.65 0.63 0.61 0.61 0.61 0.60 0.57 0.54 0.49 0.43 0.36
1.28 1.31 1.60 1.76 1.90 1.85 1.77 1.80 1.74 1.77 1.79 1.85 1.84 1.48 1.29 1.29 1.37 1.46 1.47 1.44 1.42 1.41 1.41 1.43 1.44 1.45 1.47 1.55 1.57 1.55 1.54 1.52 1.48 1.45 1.41 1.39 1.35 1.31 1.28 1.25 1.21 1.19 1.20 1.20 1.10 1.07 1.07 1.08 1.10 1.10 1.05 0.98 0.97 0.98 0.98 0.96 0.97 0.97 0.97 0.95 0.94 0.95 0.91 0.89 0.91 0.89 0.85 0.79 0.74 0.70 0.68 0.67 0.67 0.65 0.63 0.62 0.62 0.61 0.59 0.56 0.54 0.50 0.44 0.37 0.34
1.48 1.39 1.65 1.68 1.68 1.73 1.77 1.79 1.81 1.84 1.88 1.60 1.35 1.30 1.29 1.27 1.23 1.24 1.35 1.41 1.42 1.39 1.41 1.42 1.43 1.46 1.56 1.59 1.60 1.55 1.50 1.47 1.43 1.39 1.36 1.35 1.32 1.30 1.27 1.22 1.20 1.21 1.21 1.16 1.08 1.05 1.07 1.09 1.06 1.02 0.98 0.96 0.97 0.96 0.97 0.98 0.97 0.95 0.91 0.88 0.86 0.86 0.86 0.88 0.85 0.78 0.73 0.71 0.70 0.69 0.68 0.65 0.64 0.64 0.64 0.64 0.61 0.57 0.55 0.53 0.51 0.43 0.35 0.30 0.29
1.74 1.73 1.74 1.74 1.76 1.79 1.81 1.85 1.78 1.63 1.49 1.38 1.34 1.32 1.31 1.27 1.23 1.18 1.17 1.22 1.29 1.36 1.40 1.41 1.45 1.53 1.56 1.58 1.56 1.52 1.47 1.41 1.38 1.36 1.34 1.31 1.27 1.24 1.19 1.18 1.21 1.24 1.20 1.11 1.06 1.03 1.04 1.01 0.99 0.97 0.96 0.94 0.94 0.95 0.95 0.93 0.90 0.88 0.87 0.84 0.81 0.81 0.82 0.81 0.75 0.72 0.71 0.69 0.67 0.66 0.67 0.66 0.66 0.63 0.60 0.57 0.56 0.54 0.52 0.49 0.42 0.31 0.28 0.27 0.27
1.77 1.74 1.74 1.78 1.76 1.73 1.69 1.60 1.55 1.49 1.43 1.38 1.33 1.30 1.28 1.28 1.24 1.20 1.16 1.12 1.12 1.15 1.23 1.36 1.46 1.50 1.51 1.50 1.48 1.45 1.41 1.38 1.36 1.37 1.35 1.28 1.22 1.18 1.16 1.10 1.06 1.06 1.06 1.05 1.03 0.99 0.97 0.96 0.95 0.93 0.93 0.93 0.94 0.93 0.90 0.89 0.88 0.86 0.83 0.79 0.77 0.76 0.74 0.71 0.69 0.69 0.68 0.68 0.66 0.64 0.62 0.60 0.58 0.57 0.55 0.52 0.50 0.47 0.46 0.39 0.31 0.29 0.27 0.26 0.27
1.67 1.62 1.69 1.71 1.70 1.63 1.59 1.51 1.46 1.41 1.36 1.33 1.34 1.32 1.31 1.27 1.24 1.24 1.24 1.23 1.22 1.27 1.34 1.38 1.43 1.45 1.43 1.40 1.37 1.36 1.36 1.36 1.36 1.36 1.29 1.24 1.19 1.15 1.03 0.99 0.96 0.92 0.91 0.93 0.94 0.95 0.96 0.96 0.94 0.93 0.95 0.95 0.95 0.93 0.92 0.90 0.88 0.84 0.80 0.76 0.73 0.71 0.69 0.67 0.66 0.65 0.65 0.64 0.62 0.61 0.60 0.59 0.59 0.56 0.53 0.49 0.45 0.43 0.36 0.31 0.28 0.26 0.27 0.27 0.27
1.63 1.60 1.55 1.53 1.48 1.43 1.40 1.37 1.35 1.35 1.35 1.34 1.33 1.32 1.31 1.29 1.28 1.27 1.25 1.27 1.31 1.35 1.36 1.33 1.30 1.30 1.31 1.31 1.31 1.31 1.33 1.34 1.34 1.30 1.24 1.19 1.16 1.12 1.04 0.96 0.89 0.87 0.86 0.89 0.92 0.93 0.92 0.94 0.96 0.96 0.96 0.95 0.94 0.92 0.89 0.86 0.83 0.79 0.75 0.72 0.68 0.65 0.63 0.62 0.62 0.63 0.61 0.60 0.60 0.58 0.57 0.56 0.55 0.52 0.47 0.43 0.40 0.35 0.31 0.28 0.26 0.26 0.26 0.27 0.28
1.38 1.40 1.39 1.38 1.38 1.38 1.37 1.35 1.36 1.37 1.37 1.35 1.29 1.25 1.23 1.20 1.22 1.27 1.28 1.30 1.30 1.30 1.28 1.25 1.22 1.19 1.16 1.21 1.30 1.29 1.30 1.32 1.29 1.22 1.17 1.14 1.12 1.08 1.02 0.95 0.90 0.85 0.85 0.89 0.92 0.94 0.95 0.96 0.96 0.96 0.96 0.94 0.91 0.88 0.85 0.81 0.78 0.74 0.70 0.67 0.64 0.61 0.61 0.60 0.57 0.56 0.55 0.53 0.52 0.53 0.54 0.52 0.49 0.46 0.43 0.39 0.34 0.30 0.28 0.26 0.25 0.25 0.25 0.26 0.28
1.43 1.44 1.42 1.41 1.38 1.37 1.35 1.34 1.34 1.35 1.35 1.34 1.33 1.32 1.31 1.27 1.25 1.26 1.29 1.32 1.25 1.23 1.18 1.18 1.17 1.17 1.19 1.23 1.25 1.30 1.28 1.21 1.14 1.09 1.11 1.11 1.08 1.04 0.98 0.92 0.88 0.87 0.89 0.92 0.96 0.97 0.97 0.96 0.97 0.96 0.93 0.90 0.88 0.85 0.81 0.77 0.74 0.70 0.66 0.60 0.57 0.56 0.53 0.51 0.49 0.48 0.49 0.48 0.48 0.49 0.49 0.45 0.43 0.42 0.40 0.36 0.31 0.28 0.26 0.25 0.25 0.25 0.25 0.26 0.28
1.45 1.49 1.45 1.39 1.39 1.37 1.37 1.36 1.33 1.29 1.25 1.27 1.28 1.31 1.31 1.32 1.29 1.31 1.29 1.25 1.16 1.13 1.12 1.14 1.15 1.18 1.22 1.23 1.23 1.22 1.16 1.14 1.13 1.13 1.11 1.06 1.00 0.96 0.93 0.89 0.88 0.88 0.90 0.93 0.95 0.95 0.93 0.93 0.93 0.91 0.90 0.89 0.86 0.82 0.79 0.75 0.71 0.65 0.59 0.55 0.52 0.51 0.50 0.49 0.48 0.46 0.45 0.45 0.43 0.42 0.41 0.40 0.40 0.38 0.36 0.33 0.30 0.27 0.25 0.24 0.24 0.26 0.27 0.28 0.30
1.42 1.45 1.41 1.42 1.39 1.35 1.31 1.28 1.25 1.25 1.29 1.29 1.25 1.26 1.27 1.29 1.29 1.30 1.22 1.17 1.16 1.16 1.18 1.19 1.20 1.21 1.23 1.23 1.25 1.25 1.20 1.15 1.13 1.11 1.05 0.99 0.94 0.90 0.88 0.87 0.89 0.91 0.93 0.93 0.93 0.92 0.92 0.91 0.91 0.90 0.89 0.85 0.82 0.78 0.74 0.70 0.64 0.57 0.53 0.51 0.50 0.49 0.48 0.47 0.47 0.46 0.45 0.45 0.43 0.41 0.40 0.40 0.39 0.36 0.33 0.31 0.30 0.27 0.25 0.25 0.25 0.26 0.28 0.30 0.32
1.50 1.45 1.44 1.41 1.39 1.35 1.32 1.27 1.27 1.25 1.29 1.33 1.41 1.39 1.32 1.28 1.25 1.20 1.18 1.17 1.16 1.14 1.14 1.13 1.13 1.16 1.18 1.19 1.20 1.20 1.16 1.13 1.09 1.03 0.99 0.96 0.93 0.90 0.92 0.91 0.92 0.95 0.96 0.95 0.94 0.92 0.92 0.91 0.90 0.88 0.85 0.82 0.79 0.74 0.68 0.60 0.55 0.52 0.50 0.48 0.47 0.46 0.45 0.45 0.45 0.45 0.44 0.44 0.43 0.41 0.40 0.39 0.38 0.36 0.33 0.31 0.28 0.26 0.24 0.24 0.26 0.27 0.29 0.31 0.33
1.56 1.56 1.48 1.43 1.34 1.31 1.35 1.33 1.41 1.39 1.39 1.39 1.41 1.39 1.34 1.29 1.27 1.25 1.21 1.18 1.16 1.15 1.13 1.10 1.10 1.14 1.16 1.17 1.14 1.12 1.10 1.07 1.02 0.98 0.96 0.94 0.93 0.94 0.95 0.93 0.94 0.97 0.97 0.97 0.97 0.95 0.93 0.91 0.88 0.86 0.83 0.79 0.72 0.63 0.58 0.55 0.53 0.50 0.48 0.46 0.45 0.44 0.44 0.45 0.45 0.44 0.44 0.43 0.41 0.40 0.39 0.37 0.35 0.32 0.30 0.28 0.24 0.22 0.22 0.25 0.27 0.28 0.30 0.32 0.32
1.57 1.57 1.52 1.48 1.45 1.38 1.40 1.46 1.44 1.42 1.40 1.36 1.33 1.30 1.28 1.27 1.27 1.23 1.24 1.24 1.24 1.26 1.24 1.20 1.19 1.16 1.13 1.12 1.09 1.05 1.00 0.98 0.96 0.95 0.95 0.95 0.94 0.94 0.95 0.95 0.95 0.95 0.95 0.95 0.95 0.93 0.91 0.87 0.84 0.81 0.77 0.71 0.65 0.60 0.56 0.53 0.51 0.49 0.47 0.46 0.46 0.46 0.45 0.44 0.43 0.42 0.41 0.38 0.35 0.34 0.33 0.32 0.30 0.27 0.24 0.20 0.18 0.19 0.22 0.25 0.27 0.29 0.31 0.31 0.30
1.58 1.58 1.57 1.58 1.52 1.48 1.46 1.45 1.45 1.42 1.40 1.38 1.34 1.33 1.34 1.35 1.32 1.33 1.34 1.32 1.32 1.33 1.30 1.27 1.22 1.17 1.12 1.08 1.03 0.98 0.97 0.97 0.96 0.94 0.93 0.92 0.91 0.92 0.93 0.93 0.94 0.94 0.93 0.92 0.91 0.89 0.86 0.82 0.79 0.76 0.70 0.65 0.61 0.57 0.54 0.52 0.51 0.49 0.49 0.47 0.45 0.43 0.42 0.41 0.41 0.41 0.38 0.33 0.29 0.28 0.26 0.24 0.21 0.19 0.17 0.17 0.18 0.20 0.23 0.26 0.28 0.30 0.31 0.30 0.29
1.51 1.56 1.56 1.53 1.50 1.46 1.42 1.41 1.42 1.39 1.39 1.38 1.35 1.34 1.35 1.37 1.41 1.42 1.48 1.46 1.38 1.36 1.34 1.30 1.22 1.15 1.09 1.05 1.02 0.99 0.98 0.96 0.93 0.91 0.90 0.91 0.92 0.93 0.95 0.95 0.95 0.94 0.92 0.90 0.88 0.85 0.82 0.80 0.78 0.71 0.64 0.60 0.58 0.56 0.54 0.52 0.51 0.49 0.48 0.46 0.45 0.44 0.42 0.40 0.39 0.37 0.33 0.30 0.28 0.25 0.22 0.19 0.17 0.17 0.18 0.19 0.20 0.22 0.24 0.27 0.30 0.32 0.32 0.30 0.30
1.34 1.41 1.48 1.51 1.46 1.39 1.39 1.47 1.45 1.44 1.44 1.44 1.38 1.35 1.38 1.39 1.39 1.39 1.45 1.41 1.37 1.32 1.26 1.21 1.14 1.07 1.03 0.98 0.94 0.92 0.93 0.93 0.93 0.94 0.95 0.96 0.97 0.96 0.97 0.97 0.94 0.92 0.90 0.88 0.86 0.84 0.82 0.79 0.74 0.68 0.63 0.60 0.57 0.55 0.54 0.53 0.51 0.49 0.47 0.46 0.45 0.43 0.39 0.34 0.32 0.31 0.30 0.28 0.25 0.22 0.18 0.16 0.16 0.17 0.18 0.19 0.21 0.23 0.25 0.28 0.30 0.32 0.31 0.31 0.31
1.32 1.31 1.36 1.42 1.45 1.39 1.41 1.43 1.45 1.42 1.42 1.45 1.42 1.40 1.36 1.40 1.37 1.34 1.36 1.37 1.33 1.28 1.21 1.14 1.09 1.06 1.02 1.00 0.99 0.98 0.97 0.97 0.99 1.00 1.03 1.02 1.00 0.99 0.99 0.97 0.93 0.91 0.89 0.86 0.85 0.83 0.79 0.76 0.72 0.68 0.65 0.61 0.57 0.55 0.54 0.53 0.51 0.49 0.47 0.45 0.43 0.38 0.33 0.31 0.29 0.27 0.26 0.24 0.23 0.21 0.19 0.17 0.17 0.17 0.18 0.19 0.20 0.24 0.26 0.28 0.31 0.32 0.31 0.32 0.33
1.28 1.27 1.24 1.26 1.31 1.38 1.44 1.40 1.43 1.43 1.40 1.45 1.44 1.37 1.35 1.34 1.33 1.32 1.33 1.29 1.23 1.15 1.09 1.07 1.07 1.06 1.03 1.01 1.02 1.01 1.00 1.00 1.00 1.00 1.01 1.03 1.03 1.01 0.99 0.97 0.94 0.91 0.87 0.84 0.82 0.79 0.77 0.75 0.72 0.68 0.65 0.61 0.59 0.56 0.54 0.53 0.52 0.50 0.47 0.40 0.31 0.30 0.29 0.28 0.27 0.26 0.25 0.24 0.23 0.21 0.19 0.18 0.17 0.17 0.18 0.19 0.21 0.25 0.29 0.31 0.32 0.31 0.32 0.33 0.32
1.16 1.12 1.07 1.09 1.14 1.19 1.28 1.33 1.34 1.29 1.25 1.28 1.26 1.23 1.23 1.22 1.23 1.21 1.20 1.16 1.12 1.10 1.10 1.11 1.10 1.08 1.06 1.04 1.01 0.99 0.97 0.95 0.93 0.94 0.96 0.99 1.00 1.00 0.99 0.96 0.93 0.89 0.86 0.82 0.79 0.78 0.76 0.74 0.71 0.68 0.65 0.62 0.60 0.58 0.56 0.55 0.54 0.52 0.49 0.43 0.38 0.35 0.35 0.34 0.33 0.30 0.27 0.25 0.23 0.20 0.19 0.18 0.17 0.17 0.18 0.20 0.24 0.28 0.29 0.31 0.31 0.32 0.32 0.31 0.30
1.31 1.36 1.31 1.21 1.20 1.25 1.20 1.21 1.18 1.18 1.22 1.23 1.21 1.22 1.22 1.21 1.21 1.21 1.19 1.14 1.10 1.10 1.12 1.10 1.07 1.05 1.02 0.99 0.98 0.96 0.93 0.91 0.90 0.91 0.92 0.93 0.93 0.92 0.91 0.89 0.88 0.86 0.84 0.81 0.79 0.77 0.74 0.70 0.68 0.67 0.65 0.62 0.60 0.59 0.58 0.58 0.57 0.56 0.54 0.51 0.47 0.44 0.41 0.39 0.37 0.35 0.32 0.28 0.24 0.21 0.20 0.18 0.17 0.17 0.18 0.21 0.26 0.28 0.30 0.31 0.32 0.31 0.30 0.30 0.29
Wind_Speed
25 25 25 25 25 25 25 25 25 25 25 25 24 24 23 23 22 21 20 20 19 18 17 16 16 15 15 15 14 14 14 14 14 13 13 14 14 15 15 15 15 15 15 15 16 16 16 16 16 15 15 15 15 15 15 14 14 14 14 14 14 14 14 15 15 16 16 16 16 16 16 16 17 17 18 19 19 20 21 22 23 23 23 23 24
25 25 24 25 25 25 25 25 25 25 25 25 25 24 24 23 23 22 21 21 20 19 18 17 17 16 16 15 15 15 15 14 14 14 14 14 15 15 15 15 16 16 16 16 16 17 17 17 16 16 16 15 16 16 15 15 15 15 15 15 15 15 15 16 16 17 17 17 17 18 18 18 18 19 19 20 20 21 21 22 23 23 23 24 24
25 25 24 25 25 25 25 25 26 26 26 26 26 25 25 24 23 23 22 21 20 20 19 18 17 17 16 16 16 15 15 15 15 15 15 15 16 16 16 16 17 17 17 18 17 17 17 17 17 17 16 16 16 16 16 16 16 16 17 17 17 17 17 17 17 17 18 19 19 19 19 19 20 20 21 21 21 22 22 22 22 23 23 24 24
25 25 24 24 25 25 25 25 26 26 26 26 26 26 25 25 24 23 23 22 21 21 20 19 18 18 17 17 16 16 16 16 16 16 16 16 17 17 17 18 18 18 19 18 18 18 18 18 18 17 17 17 17 17 17 17 17 17 18 18 18 19 19 19 19 18 19 20 20 20 20 20 21 22 22 23 23 23 23 23 23 23 24 24 24
25 25 25 24 24 25 25 25 26 26 26 26 27 27 26 25 24 24 23 22 22 21 20 20 19 18 18 17 17 17 17 17 17 17 17 17 17 18 18 19 19 20 20 20 19 19 19 18 18 18 18 18 18 18 18 18 18 18 19 19 19 19 20 20 20 20 20 21 21 22 22 22 22 23 23 24 24 25 25 25 25 25 25 26 26
26 26 25 25 25 25 25 25 26 26 27 27 27 27 27 26 25 24 24 23 22 22 21 20 20 19 19 18 18 17 17 17 17 17 17 17 18 18 19 20 20 21 21 21 20 20 19 19 19 19 19 19 19 19 19 19 19 20 20 20 20 20 21 21 21 21 22 22 23 23 23 23 24 24 25 25 26 26 27 27 27 27 27 27 27
27 27 26 25 25 25 25 26 26 26 26 27 27 27 27 27 26 25 24 24 23 22 22 21 20 20 19 19 19 18 18 17 17 17 17 18 18 19 20 20 21 22 22 21 21 21 20 19 19 19 19 19 20 20 21 21 21 21 21 21 21 21 21 22 22 22 23 23 23 24 24 25 25 26 26 27 27 28 28 28 28 28 28 28 27
28 28 27 27 26 26 26 26 26 26 26 27 27 27 28 27 27 26 25 24 24 23 23 22 21 20 20 20 19 19 18 18 17 17 18 18 19 20 21 21 22 22 22 22 22 21 20 20 20 20 20 20 21 21 22 22 22 22 23 23 22 22 22 22 23 23 24 24 24 24 25 25 26 27 27 28 29 29 28 28 28 28 28 28 28
29 28 28 28 27 27 26 26 26 27 27 27 28 28 28 28 27 26 26 25 25 24 23 22 21 21 20 20 20 19 19 18 18 18 18 19 20 21 21 22 22 22 21 22 22 21 21 21 20 21 21 21 22 23 23 24 23 23 24 24 23 23 23 23 23 24 24 24 25 25 26 26 27 28 28 29 29 29 29 29 28 28 28 29 29
30 29 29 29 28 28 27 27 27 27 28 28 28 29 29 28 28 27 27 26 25 24 24 23 22 22 21 21 20 20 19 19 19 19 19 20 21 22 22 22 22 22 21 22 22 22 22 22 22 22 22 23 23 24 25 25 25 24 25 25 24 24 24 24 24 25 25 26 26 27 26 27 28 28 29 30 30 30 30 29 29 29 30 30 31
31 31 31 30 30 29 29 28 28 28 28 29 29 29 29 29 28 28 27 27 26 25 24 23 23 22 22 21 21 21 20 20 20 20 21 21 22 22 22 23 23 22 22 22 22 23 22 22 22 23 23 23 24 25 25 26 26 26 26 26 25 25 25 25 25 26 26 27 27 27 27 28 29 30 30 31 31 31 30 29 29 30 31 31 31
32 32 31 31 31 31 30 29 29 29 29 30 30 30 29 29 29 28 28 27 26 26 25 24 23 22 22 22 22 21 21 21 21 21 22 23 23 23 23 23 23 23 23 23 23 23 23 23 23 23 23 23 23 25 26 26 27 27 27 27 26 26 26 26 26 27 27 28 28 28 28 29 30 31 31 32 31 31 30 30 31 32 32 32 32
33 33 32 32 32 32 31 31 30 30 30 30 31 30 30 30 29 29 28 28 27 26 25 24 23 23 23 22 22 22 22 22 22 22 23 24 24 24 24 24 24 24 23 23 23 23 24 24 23 23 23 23 23 25 26 26 27 28 28 28 27 27 27 27 27 28 28 28 28 28 29 30 31 32 32 32 31 31 31 31 32 33 33 34 34
34 34 34 33 33 33 32 32 31 31 31 31 31 31 31 31 30 29 29 28 27 26 26 25 24 23 23 23 22 22 22 22 23 23 24 24 25 25 25 25 25 24 24 23 23 24 23 23 23 23 23 23 24 25 26 27 28 29 29 28 27 27 27 27 27 28 27 27 28 29 30 32 32 33 32 31 31 31 32 32 33 34 34 35 34
36 35 35 35 34 34 34 33 32 32 32 32 32 32 32 31 31 30 29 28 28 27 26 25 24 24 23 23 23 23 23 23 23 23 24 25 26 26 26 26 25 25 24 24 24 24 24 24 24 24 24 24 25 26 27 27 28 29 29 28 27 26 26 27 27 27 27 28 30 31 32 32 33 33 32 31 32 33 33 34 34 35 35 35 35
37 37 36 36 36 35 35 34 33 32 32 33 33 33 32 32 31 30 29 29 28 27 26 25 25 24 24 23 23 23 23 22 22 23 24 25 27 27 27 27 26 26 25 25 24 24 24 24 25 25 25 25 25 26 27 28 28 29 28 27 26 26 26 27 27 27 29 30 31 31 32 33 33 33 33 33 33 34 34 35 35 35 36 35 35
38 38 37 37 37 36 36 35 34 33 33 34 34 33 33 32 32 31 30 29 28 27 27 26 25 25 24 23 23 23 23 22 23 23 25 26 28 28 28 27 27 26 25 25 25 25 25 25 25 25 25 25 25 26 27 27 28 27 27 26 26 26 27 28 28 28 29 30 31 32 32 33 33 33 33 34 34 34 35 35 35 35 35 35 35
38 38 38 38 38 37 36 36 35 34 34 34 34 34 33 32 32 31 30 29 28 27 27 26 25 25 24 24 24 23 23 23 23 24 25 26 27 27 26 26 26 26 25 25 25 25 26 26 25 25 25 25 25 26 27 27 27 27 26 26 26 27 28 28 28 28 29 30 31 32 32 32 33 33 34 35 36 35 35 36 35 35 35 35 36
38 38 39 38 38 37 37 36 36 35 35 34 34 34 33 33 32 31 31 30 29 28 27 26 26 25 25 24 24 23 23 24 24 24 25 26 26 25 24 24 25 25 25 25 25 25 26 26 25 25 25 25 25 26 27 28 27 27 26 26 27 27 28 28 28 29 30 30 31 32 33 33 34 35 36 36 36 36 35 35 35 35 35 36 36
39 39 39 38 38 38 37 37 37 36 36 35 34 34 33 33 32 31 31 30 29 28 27 27 26 26 25 24 23 23 24 24 24 25 25 26 25 24 24 24 25 25 25 25 25 25 26 25 24 25 25 25 26 27 27 27 27 27 26 26 26 26 26 27 28 29 30 31 32 33 34 34 35 36 36 36 35 35 35 34 34 34 34 34 34
39 39 39 38 38 38 39 39 38 38 37 36 36 35 34 33 32 32 31 30 29 28 27 27 26 25 25 24 23 23 24 24 24 25 25 25 25 24 24 25 25 25 25 25 25 25 25 24 24 24 25 26 27 27 27 27 27 26 25 25 25 24 25 27 29 30 31 32 33 34 35 35 35 35 35 35 34 34 33 33 33 33 33 33 33
40 40 40 39 39 39 39 40 40 39 38 38 37 36 35 33 33 32 31 30 29 28 27 27 26 25 24 23 23 23 24 24 24 25 25 25 25 25 25 26 25 25 25 25 24 24 24 23 24 24 25 26 27 27 27 27 26 25 24 24 24 25 27 29 30 31 32 32 34 34 35 34 34 34 33 33 33 32 32 32 32 32 32 33 32
43 43 42 42 40 39 40 40 41 40 39 39 38 36 35 34 33 32 31 30 29 28 27 27 26 24 23 23 23 24 25 25 25 25 25 25 25 25 25 26 26 25 24 24 23 23 23 23 23 24 25 26 26 25 25 25 24 23 23 24 26 28 29 30 31 31 32 33 34 34 33 33 32 32 31 31 31 30 30 31 31 31 32 32 31
46 45 45 44 42 41 40 40 40 40 40 39 38 36 35 33 32 31 31 30 29 28 27 27 26 24 23 23 24 25 25 25 25 25 25 25 25 25 26 26 25 24 23 23 22 22 22 23 23 24 24 24 24 24 24 24 22 22 23 25 27 28 29 30 30 31 32 33 32 31 31 31 30 30 29 29 29 29 29 30 30 31 31 31 30
48 47 46 45 44 42 40 40 39 40 40 40 38 37 35 33 32 31 30 30 29 28 28 27 26 24 24 24 25 25 25 25 25 25 26 26 26 26 26 26 24 23 22 21 21 21 22 22 22 22 22 22 23 23 23 23 22 22 24 25 27 28 29 30 30 30 31 31 30 30 29 29 28 28 28 28 28 28 29 29 30 30 30 30 29
49 48 47 47 46 44 42 41 40 39 40 41 40 37 36 34 32 31 30 29 29 29 28 27 26 25 25 25 25 25 24 24 24 25 26 26 25 25 25 24 22 21 20 20 20 20 20 20 20 21 21 22 22 22 22 22 22 23 25 26 27 28 29 29 29 29 29 29 28 28 27 27 27 27 27 27 27 28 28 29 29 29 29 29 29
49 50 49 49 48 47 44 42 41 40 40 41 40 38 36 34 32 31 30 30 29 29 28 27 27 26 25 25 24 24 24 24 25 25 25 24 24 23 22 21 20 19 19 20 19 19 19 19 19 20 20 21 21 22 22 22 23 24 25 26 27 28 28 28 28 28 28 28 27 26 26 25 26 26 26 26 27 28 28 28 29 29 29 28 28
48 50 52 51 49 48 46 44 43 41 41 41 40 38 36 35 33 32 31 31 30 29 28 28 27 26 24 24 24 23 23 24 25 24 24 23 22 21 19 19 19 19 19 19 18 18 18 19 19 19 20 20 21 22 22 23 23 24 25 26 27 27 28 28 28 27 27 26 25 25 25 25 25 25 25 26 26 27 27 28 28 28 28 27 27
43 44 47 50 49 48 47 46 44 43 42 41 41 38 35 34 32 31 31 30 30 29 28 27 26 25 25 24 23 23 24 25 25 24 23 22 21 20 19 19 19 19 19 18 18 18 19 19 19 19 20 20 21 22 22 23 24 25 26 26 27 27 27 27 27 26 25 24 24 24 24 24 24 24 24 25 26 26 26 27 27 27 27 26 26
39 38 39 42 45 45 45 45 44 43 42 41 40 36 33 31 30 30 30 29 28 28 27 26 25 25 25 24 24 24 25 25 23 22 21 21 20 20 19 19 19 19 18 18 18 19 19 19 19 20 20 20 21 22 23 23 24 25 26 27 27 27 27 26 25 24 23 23 23 23 23 22 22 22 23 24 25 25 25 26 26 26 26 25 25
40 39 38 38 39 40 41 42 41 40 39 39 37 34 31 29 28 28 28 27 26 25 25 25 24 24 24 24 24 25 24 23 21 20 20 19 19 19 18 18 18 18 18 18 18 19 18 19 19 20 20 20 21 22 23 24 25 26 26 27 27 26 26 24 23 22 22 22 21 21 20 20 21 21 22 23 24 24 25 25 25 24 24 24 24
37 38 37 36 36 37 38 38 37 36 35 35 34 31 30 28 27 26 26 25 24 23 24 24 24 23 24 24 24 24 22 21 20 20 19 19 18 18 17 17 17 17 18 18 18 18 18 19 19 19 20 20 22 23 24 25 26 26 26 26 25 24 23 22 21 20 20 19 19 19 19 20 20 21 22 23 23 24 24 24 23 23 23 24 24
32 33 33 33 33 33 34 34 33 32 32 32 30 28 28 27 26 25 24 23 23 23 23 23 23 24 25 24 23 22 21 20 19 19 19 19 18 17 17 17 17 17 17 18 18 18 18 19 19 19 20 21 22 24 24 25 25 25 24 23 22 21 20 19 19 18 18 18 18 18 19 20 21 22 22 23 23 23 23 23 23 23 23 23 23
25 25 25 26 27 29 30 30 30 30 30 29 26 25 25 25 25 24 24 23 23 23 22 22 23 24 23 22 21 20 20 19 18 18 18 18 17 16 16 16 16 17 17 17 18 18 18 18 18 19 20 21 22 23 23 23 23 22 22 21 19 18 18 17 17 17 18 18 18 19 20 21 21 22 22 22 22 22 22 22 23 23 23 23 23
18 19 21 24 25 26 28 27 27 28 28 26 24 23 23 24 24 24 24 23 23 23 23 23 23 22 20 20 20 19 19 18 18 18 17 17 16 16 15 15 16 17 17 17 17 17 17 17 18 19 19 20 21 22 22 22 22 21 20 19 18 17 17 17 17 17 17 18 18 19 20 20 20 21 21 21 21 21 22 22 23 23 23 23 23
16 19 22 23 23 23 25 25 26 26 26 24 22 22 23 23 23 23 23 23 23 23 23 22 21 19 19 19 19 19 18 18 18 18 17 17 16 16 16 16 16 16 16 16 16 16 17 17 18 19 20 21 22 22 22 22 21 20 19 18 17 17 16 17 17 17 17 18 18 19 19 19 20 20 20 20 20 21 22 22 23 22 22 22 22
15 17 20 21 21 22 23 24 24 24 24 22 22 22 22 22 22 22 22 22 23 23 21 20 19 19 18 18 18 18 18 18 17 17 17 16 16 16 16 16 16 16 16 16 16 16 17 18 19 20 21 21 22 22 21 21 20 19 18 17 17 16 16 16 16 16 17 17 18 18 19 19 19 19 19 19 20 21 22 22 22 21 21 21 21
14 16 17 19 20 21 21 22 23 23 23 22 21 21 21 21 22 22 22 22 22 22 21 20 19 19 19 19 19 19 18 17 17 16 16 16 16 16 16 16 16 16 16 16 16 17 17 18 19 20 21 21 21 21 20 20 19 18 17 17 16 16 16 16 16 16 16 17 18 18 18 18 18 18 19 19 20 21 21 21 21 21 20 20 20
14 16 17 18 19 20 21 21 22 22 22 22 22 22 22 22 23 23 23 22 21 20 20 20 20 19 19 19 19 19 18 18 17 17 17 17 17 17 17 16 16 16 16 16 17 17 18 19 20 20 21 21 20 20 20 19 18 17 16 16 15 15 15 15 15 15 16 17 18 18 17 17 18 18 19 19 20 20 21 21 20 20 20 20 20
15 16 17 18 18 19 19 20 20 20 21 21 21 22 23 23 24 24 23 22 21 20 20 20 20 20 20 19 19 19 18 18 18 18 18 18 17 17 17 16 16 16 17 17 17 18 18 19 19 20 20 20 19 19 19 18 17 16 16 15 15 15 15 15 15 15 16 17 17 16 16 17 17 18 18 19 19 19 20 20 20 20 20 20 20
15 16 17 17 18 18 18 18 19 19 20 20 21 21 22 22 22 22 21 20 20 20 20 20 20 20 20 20 19 19 19 18 18 18 18 18 17 17 17 16 16 16 17 17 18 18 18 19 19 19 19 19 19 19 19 18 17 16 15 14 14 14 14 14 14 15 16 16 16 16 16 17 17 18 18 19 19 19 20 20 20 20 20 20 20
14 16 16 16 17 17 18 18 19 19 20 20 21 21 21 21 21 20 20 20 20 20 20 20 20 20 19 19 19 19 18 18 18 18 18 18 17 17 17 16 16 16 17 18 18 18 18 19 18 18 18 18 18 18 18 18 16 15 14 14 13 13 14 14 15 15 16 16 16 16 17 17 17 18 18 18 19 19 19 19 20 19 19 19 20
15 16 16 17 17 17 18 18 19 20 20 21 21 21 21 20 20 20 20 20 19 19 19 19 19 19 18 18 18 18 18 17 18 18 18 17 17 17 17 16 16 17 17 18 18 18 18 18 18 18 18 18 18 18 18 17 16 14 14 13 13 14 14 14 15 16 16 16 16 16 16 17 17 18 18 18 18 19 19 19 19 19 19 19 20
15 16 16 17 18 18 19 19 20 21 21 21 21 21 21 21 21 21 21 21 20 20 19 18 18 18 17 17 17 17 17 17 17 17 17 17 17 17 17 17 17 17 18 18 18 18 18 18 18 17 17 17 17 17 17 16 15 14 14 13 14 14 14 15 15 15 15 15 15 15 16 17 17 18 18 18 18 18 18 19 19 19 19 19 19
17 17 17 18 18 18 19 20 20 21 21 21 21 21 21 21 21 21 21 21 20 20 18 17 17 17 17 17 17 17 17 17 17 17 17 17 17 17 17 17 17 17 18 18 18 18 18 18 18 17 17 17 17 17 16 15 14 14 14 14 14 14 15 15 15 15 15 15 15 15 16 16 16 17 17 17 17 17 18 19 19 19 19 19 19
19 20 20 19 19 18 18 19 19 19 19 19 19 19 19 19 19 19 19 18 18 18 18 17 17 18 18 18 18 18 18 17 17 17 17 17 17 17 17 17 17 18 18 18 18 18 18 18 17 17 17 16 16 16 16 15 14 14 14 13 14 14 15 15 14 14 14 14 14 14 15 15 15 16 16 16 16 17 17 18 18 19 19 18 18
20 21 21 21 20 19 17 17 18 19 19 19 18 18 18 18 18 18 19 19 18 18 18 18 18 18 18 18 18 18 17 17 17 18 18 18 18 17 17 17 18 18 18 18 18 18 18 18 18 17 16 16 16 16 15 14 13 13 13 13 13 14 14 13 13 13 13 13 14 14 14 14 15 15 16 16 16 16 17 18 18 19 19 18 18
18 19 19 19 19 19 18 17 18 18 19 18 18 18 18 18 18 18 19 19 18 18 18 18 19 19 19 18 18 18 18 18 18 18 18 18 18 18 18 18 18 19 19 19 19 19 18 18 17 17 16 16 16 15 15 14 13 13 13 13 13 13 13 12 12 13 13 13 13 14 14 14 14 15 15 16 16 16 17 17 18 18 18 18 18
17 18 19 20 20 19 19 19 18 18 18 18 18 18 19 19 19 19 19 19 19 20 20 20 20 20 19 19 18 18 18 19 19 19 19 19 19 20 20 20 20 20 20 19 19 19 18 18 17 17 16 16 15 15 14 14 13 13 13 13 12 12 12 12 12 12 13 13 13 14 14 14 14 15 15 16 16 16 17 17 18 18 18 18 18
17 18 19 19 19 19 19 19 19 19 19 20 20 19 19 19 19 19 20 20 19 20 20 20 20 19 19 18 18 18 18 19 19 19 20 20 20 20 20 20 20 20 20 20 19 19 18 18 17 17 16 16 15 15 14 14 13 13 13 13 12 12 12 12 12 13 13 13 13 14 14 14 15 15 15 16 16 16 16 17 17 18 18 18 18
15 16 16 17 17 18 18 18 18 17 18 18 18 18 18 18 19 19 19 19 19 19 19 19 19 19 19 19 19 19 19 19 19 19 20 20 20 20 20 20 20 20 20 19 19 19 19 18 18 17 17 16 16 15 15 14 13 13 13 13 13 13 13 13 13 13 13 13 13 14 14 15 15 15 15 16 16 16 16 17 17 17 17 18 18
Wind_Direction
222 223 223 225 226 226 226 226 226 225 225 225 225 224 223 223 224 224 224 225 226 228 230 233 236 239 243 247 252 256 260 265 269 274 279 282 285 288 288 289 290 292 293 294 294 294 294 294 294 295 296 295 295 296 295 292 289 289 290 289 287 285 283 280 280 284 287 289 290 290 290 291 292 293 293 294 294 293 293 292 291 290 290 288 287
222 222 222 223 225 225 225 225 225 225 224 224 224 224 223 223 223 224 224 225 227 228 231 234 237 240 243 247 252 256 260 263 267 272 276 280 284 286 287 286 287 289 290 291 291 291 292 291 291 293 294 292 292 294 295 292 289 288 289 289 288 286 285 282 280 281 284 287 290 290 289 288 289 291 293 293 294 295 295 294 293 292 291 291 289
222 222 222 223 224 225 226 225 225 224 224 224 224 223 223 223 223 223 224 226 228 230 232 235 238 241 243 247 251 255 258 262 266 271 276 280 282 284 285 285 285 287 288 288 289 289 289 289 289 290 292 290 289 291 293 292 289 287 288 289 288 287 286 284 283 281 282 286 289 290 288 287 288 290 293 294 295 295 295 295 294 293 292 292 291
221 222 222 223 224 225 225 225 225 224 224 224 223 222 222 222 222 223 224 226 229 231 233 236 239 241 244 247 250 253 257 262 267 272 277 280 281 282 284 285 285 285 286 286 287 287 286 286 287 289 290 289 288 289 291 292 290 287 285 286 287 286 285 284 284 283 284 286 288 289 288 288 288 290 293 295 296 295 294 295 295 294 293 293 292
221 221 222 223 224 225 225 225 225 224 224 223 223 222 221 222 223 223 225 227 229 231 233 236 239 241 244 247 251 254 257 262 267 272 276 279 281 282 284 285 285 285 284 284 285 284 283 284 286 287 287 287 287 287 289 291 292 288 285 284 285 285 285 283 283 283 284 286 287 289 289 288 289 291 293 294 295 295 294 293 294 295 295 294 293
222 222 222 223 225 225 225 225 225 224 224 224 223 222 222 223 223 224 226 227 228 230 233 236 238 241 244 248 251 255 258 262 267 271 275 278 281 283 285 286 286 285 282 281 282 281 281 281 283 284 285 285 285 286 288 291 292 290 287 285 285 285 283 282 282 283 284 285 287 288 289 290 291 292 293 293 294 295 294 292 293 294 295 295 294
224 224 223 223 225 225 225 225 225 225 225 224 223 223 223 224 225 225 226 227 228 230 233 236 238 241 245 249 252 256 259 263 268 272 275 278 282 285 287 287 287 286 283 281 280 279 279 280 280 281 283 283 283 284 286 289 292 291 288 286 287 286 283 281 281 282 283 285 286 288 290 292 293 294 294 294 294 294 294 293 292 292 293 294 294
225 225 225 224 225 225 225 225 225 225 225 225 224 224 224 225 225 226 227 228 229 231 234 236 238 242 246 250 254 257 260 264 268 272 276 279 283 286 288 288 288 287 285 281 279 279 279 279 279 280 281 282 283 283 285 289 291 291 288 287 287 285 283 282 282 282 283 285 286 288 291 293 294 295 296 296 295 294 294 293 292 292 293 293 292
225 226 227 227 226 226 226 226 226 226 225 225 225 225 225 226 226 227 228 228 230 232 234 237 239 243 247 251 255 258 261 265 268 272 275 279 283 286 288 289 288 287 284 281 279 279 278 278 279 279 280 280 280 282 284 288 290 290 289 287 284 284 283 282 283 283 284 285 286 289 291 293 295 297 297 297 295 295 294 292 292 292 293 293 293
226 227 228 229 228 226 226 226 226 226 226 225 225 225 226 226 227 227 228 229 231 233 235 238 241 245 248 252 256 258 263 267 269 271 274 279 284 288 290 290 288 286 284 280 278 278 279 279 279 278 278 278 279 280 283 285 287 288 288 286 283 283 283 282 282 283 284 284 286 288 290 293 295 297 297 297 297 295 293 292 291 292 294 295 295
227 228 230 231 229 228 227 227 226 226 226 226 226 226 226 226 227 228 228 229 231 233 236 239 242 246 249 253 256 260 264 268 268 270 274 279 285 289 291 291 289 286 284 280 278 277 278 280 280 279 279 279 279 280 281 283 286 287 287 285 282 282 282 281 281 282 283 284 286 288 290 292 295 296 297 297 296 295 293 292 292 293 295 295 296
228 229 230 231 230 229 229 228 227 227 226 226 226 226 226 226 227 227 228 230 232 234 237 240 243 247 250 254 257 261 265 267 268 270 275 279 284 288 290 292 291 288 285 281 279 277 278 279 280 280 280 279 280 281 281 283 286 287 287 285 282 281 281 280 281 282 283 284 286 288 290 292 294 296 297 297 296 294 292 292 292 294 294 295 295
229 230 230 230 231 231 230 229 228 227 227 226 226 226 226 226 226 227 229 230 233 235 238 241 244 248 251 254 258 262 265 267 268 271 276 280 283 286 290 291 290 289 286 283 281 279 279 280 281 280 279 279 279 280 282 284 286 288 287 285 283 281 280 280 281 282 284 285 286 288 290 293 295 297 297 297 296 294 292 291 293 294 294 295 295
229 230 230 230 231 231 230 229 229 228 227 227 226 226 226 226 226 228 229 231 233 236 238 242 245 248 251 254 258 262 265 267 269 272 277 281 283 285 288 290 289 288 286 285 283 281 281 281 282 280 278 278 279 280 282 284 286 288 288 285 282 281 279 280 282 283 285 286 286 288 291 294 296 297 297 296 295 293 292 292 293 294 294 295 295
230 230 230 230 231 231 231 230 229 228 227 227 226 226 226 226 227 228 230 231 234 237 239 242 245 249 251 254 257 262 265 267 270 274 278 281 283 285 287 288 287 286 286 285 284 283 283 283 283 281 279 278 279 280 283 285 287 288 288 285 282 280 280 282 283 284 286 287 288 290 293 295 296 297 296 295 294 293 292 293 294 295 295 295 295
230 230 230 230 230 231 231 230 230 229 227 226 226 226 226 227 228 229 230 233 235 238 240 243 246 249 252 255 257 261 266 268 271 275 279 282 283 284 285 286 285 285 284 284 283 283 283 283 284 283 281 280 280 281 283 285 288 288 287 284 281 281 281 283 284 285 286 288 290 292 293 295 296 296 295 295 294 293 293 294 295 295 294 294 294
230 230 229 229 230 230 231 231 230 229 227 226 226 226 227 228 229 229 231 233 236 238 241 244 247 250 252 255 258 262 266 269 271 275 279 283 285 284 282 283 283 283 283 283 282 282 283 282 284 284 282 281 281 282 283 286 288 287 285 283 281 281 282 283 285 286 287 289 290 292 293 295 296 296 295 295 294 294 294 294 294 294 294 294 294
231 230 230 230 230 230 230 230 230 229 227 227 226 226 227 228 230 230 232 234 237 239 242 245 248 250 253 256 258 261 266 269 271 275 280 285 287 284 281 281 282 282 282 282 282 282 282 282 283 283 283 282 282 283 285 288 288 285 283 282 281 281 281 283 287 290 291 291 293 294 295 296 296 295 295 295 294 294 294 294 294 294 294 294 294
232 232 232 232 231 231 230 229 229 228 228 227 226 226 227 229 230 231 233 235 238 240 243 246 248 251 253 255 257 260 266 270 271 276 282 286 288 286 283 281 282 282 282 282 281 281 282 282 282 282 282 282 283 285 287 287 286 284 282 282 281 280 281 284 289 292 294 294 295 295 296 296 296 296 296 295 295 294 293 294 294 294 294 295 295
234 234 234 233 232 230 229 229 228 228 228 228 226 226 227 229 230 232 233 236 238 240 243 245 248 250 253 255 257 261 266 270 274 278 283 286 286 285 283 283 282 283 283 282 281 280 281 281 281 280 281 281 283 285 287 286 285 283 281 280 280 279 282 287 292 294 295 296 296 297 297 297 298 297 297 296 295 295 294 294 294 295 295 296 296
236 235 235 234 232 231 230 229 228 228 228 227 227 226 227 229 230 231 233 235 237 240 242 245 247 249 252 255 258 262 267 272 277 279 283 286 285 284 284 283 283 284 284 282 281 280 279 280 280 280 281 282 284 286 287 286 285 283 282 281 281 284 288 292 294 296 297 298 298 298 299 299 298 298 297 296 295 295 295 295 295 296 297 296 296
237 237 235 234 234 232 230 229 228 227 226 226 226 226 227 228 230 231 233 235 236 238 241 244 246 248 252 256 259 264 270 275 278 281 283 285 284 283 283 283 283 284 283 282 281 279 278 279 280 280 282 284 286 287 288 287 285 283 283 284 284 288 293 295 296 297 298 299 299 299 299 299 299 298 298 297 297 297 297 297 297 297 297 297 296
239 238 236 235 235 233 231 229 227 227 225 224 224 225 226 227 228 230 232 233 235 238 240 243 245 247 252 257 261 267 272 275 278 281 284 285 283 282 283 283 283 282 282 281 279 278 278 278 280 281 283 286 287 288 290 290 285 282 283 285 286 290 293 295 296 298 299 299 299 299 300 300 300 300 300 300 300 299 299 299 298 298 298 297 296
238 238 237 236 235 234 232 229 227 226 224 222 222 223 225 226 227 229 231 232 235 238 240 242 244 247 252 258 263 268 271 275 278 280 283 285 283 282 283 283 280 279 280 280 279 279 279 280 281 282 284 286 288 289 291 290 286 283 285 287 288 291 294 295 297 299 299 299 300 300 301 301 301 301 301 301 301 301 300 300 300 300 300 299 298
238 237 236 235 235 234 232 229 227 226 224 222 221 222 223 224 226 227 229 232 234 236 238 241 244 247 252 258 263 267 270 274 278 280 283 284 283 281 281 281 277 276 278 278 278 280 281 281 282 283 285 287 288 289 290 288 287 287 289 290 291 293 296 297 298 299 299 300 300 301 302 302 303 303 303 302 302 302 302 302 302 303 302 301 300
238 236 236 234 233 232 231 230 227 225 223 221 220 221 222 222 224 225 227 231 233 235 237 240 243 247 253 258 262 265 269 274 279 282 284 284 282 281 280 278 275 275 277 278 279 281 282 282 283 285 286 288 288 289 289 289 290 291 292 293 295 296 298 298 299 300 300 300 301 302 303 303 304 304 303 303 303 303 303 304 304 304 303 302 301
241 236 235 233 231 229 229 228 226 223 222 220 219 220 220 221 222 223 225 229 231 233 236 239 243 248 253 256 260 264 269 275 280 282 283 283 282 281 278 274 271 273 276 278 279 281 281 283 285 286 287 287 289 290 292 293 293 294 295 296 297 298 298 299 300 300 301 301 301 302 303 303 303 304 304 303 303 304 305 305 305 305 304 303 302
246 240 234 232 229 227 226 225 223 222 220 218 217 217 218 219 220 222 225 227 230 232 236 240 244 247 251 254 258 263 269 276 280 280 280 280 280 278 274 272 271 272 274 276 278 280 282 284 286 286 287 289 291 292 293 294 295 296 297 298 299 299 299 300 300 301 301 301 301 302 303 303 304 304 304 304 305 306 306 307 307 306 306 305 304
252 247 238 232 228 225 223 221 220 220 217 215 214 215 216 217 219 221 225 228 231 234 237 240 243 246 250 254 258 264 271 277 278 278 279 278 274 272 272 271 271 272 271 272 276 280 282 283 283 285 287 290 292 292 293 294 296 297 299 299 300 300 300 300 300 300 300 300 301 301 302 303 304 304 305 306 306 308 309 309 309 309 308 307 307
250 249 244 236 229 224 221 219 218 217 213 210 208 209 211 215 217 220 224 229 233 236 238 240 243 247 251 255 260 268 275 277 277 277 278 274 270 270 272 271 271 271 271 272 276 280 281 281 282 285 288 291 292 292 294 296 297 299 300 300 301 301 301 300 300 300 300 300 300 301 302 304 305 306 307 308 309 310 312 313 312 311 311 310 309
247 247 246 241 231 224 221 218 216 214 210 204 202 203 207 212 217 221 225 229 232 235 237 240 244 248 252 257 265 273 276 276 274 275 274 272 269 269 270 270 270 271 271 273 277 279 280 282 283 285 288 290 291 293 296 298 300 300 300 301 301 301 300 300 299 299 299 299 300 302 303 305 306 307 309 310 312 314 315 315 315 314 314 312 311
243 243 244 241 234 227 223 218 213 207 201 197 197 200 205 211 216 222 226 228 231 234 238 242 245 249 255 261 267 272 273 271 271 272 271 269 268 268 268 269 270 271 272 274 276 278 280 283 284 286 288 291 293 296 299 300 301 301 300 300 300 300 299 298 297 297 298 299 301 303 305 306 308 310 312 314 314 316 317 317 318 318 317 315 313
240 240 240 237 230 223 215 208 202 195 192 192 196 203 209 212 216 220 224 228 232 236 242 246 250 255 260 264 266 269 269 268 269 270 269 268 267 267 268 270 271 271 272 273 276 279 281 283 285 287 290 292 295 299 301 302 302 301 301 301 301 300 298 298 298 299 300 301 303 305 307 309 311 312 314 315 316 317 318 319 320 320 319 318 317
232 229 224 217 209 201 195 192 190 189 190 195 202 208 212 214 216 219 223 228 234 240 244 249 254 259 262 262 262 265 266 265 267 268 267 266 266 267 269 271 271 271 271 273 276 278 280 282 285 288 291 295 299 301 302 303 302 302 303 303 303 302 300 300 300 301 302 303 305 307 309 310 312 313 315 316 317 318 319 320 321 321 320 319 318
210 202 192 186 184 184 185 187 189 191 195 201 207 212 214 217 220 222 227 232 237 241 245 250 255 260 261 259 260 262 263 264 266 266 264 264 265 265 267 270 270 270 271 273 275 277 279 282 285 288 292 297 300 301 302 302 302 303 303 303 303 302 302 302 302 302 303 304 307 309 311 312 314 315 316 317 318 319 321 322 322 322 321 320 318
189 186 182 181 182 185 188 191 193 195 200 206 212 215 217 220 224 228 233 238 240 243 246 250 254 257 258 258 260 262 262 263 264 262 261 262 262 263 266 268 268 269 271 272 274 277 280 282 284 288 293 297 299 300 300 301 302 303 302 301 301 301 302 303 303 303 304 306 308 310 312 314 315 316 317 318 319 320 322 323 323 323 321 321 320
179 181 185 190 191 192 194 196 198 201 206 211 215 217 219 223 228 233 238 241 242 244 247 250 251 253 256 258 260 261 262 262 262 261 261 261 261 264 267 268 267 268 270 272 274 277 280 283 286 289 293 296 297 298 299 300 301 301 300 299 300 301 302 303 303 304 305 307 309 310 312 314 315 316 317 318 321 322 324 324 325 324 323 323 323
186 186 190 195 198 199 201 204 206 209 213 217 220 221 224 229 233 237 240 242 245 247 248 248 250 252 254 256 258 259 259 259 259 259 260 260 261 264 266 267 267 269 270 272 274 277 281 285 288 290 293 295 297 298 299 300 300 299 298 298 299 300 301 302 303 304 306 309 311 311 312 314 315 316 317 319 322 324 324 325 325 325 325 325 325
197 196 196 199 203 206 208 211 213 216 220 224 227 228 231 234 239 242 244 245 245 246 246 247 251 254 255 256 257 257 256 256 256 257 258 258 260 263 264 266 267 269 270 273 275 278 282 286 288 291 293 295 296 297 298 298 298 296 295 295 296 298 299 300 302 304 308 311 313 312 313 314 314 315 318 321 323 324 325 325 326 327 327 327 326
208 206 206 206 209 211 212 214 217 220 224 227 229 231 234 239 243 245 245 243 243 244 247 250 253 255 255 256 255 255 254 254 254 254 255 257 259 261 263 265 267 268 270 272 275 280 284 286 289 292 294 295 296 296 297 296 295 293 292 293 294 295 297 299 302 305 309 312 313 313 313 313 314 315 318 321 323 324 325 326 326 327 327 328 327
209 208 208 209 210 212 215 218 221 224 227 230 232 235 239 243 244 242 240 240 243 246 250 252 254 255 255 253 253 253 254 253 252 253 254 256 258 260 262 264 266 268 270 273 277 281 284 286 289 292 293 294 294 294 295 294 292 290 290 291 292 294 296 298 301 305 308 311 312 312 312 312 314 316 319 321 322 324 326 326 326 326 327 328 329
215 211 211 212 215 217 221 224 226 229 231 234 237 240 241 240 239 238 240 244 247 249 251 253 254 254 253 251 250 252 253 252 252 254 255 256 258 260 261 263 266 268 271 274 277 280 283 285 288 290 292 293 293 294 293 292 290 287 287 288 289 291 293 296 300 304 306 308 310 312 312 313 314 316 318 320 322 323 325 326 326 326 326 328 329
227 223 220 222 226 229 232 234 233 234 237 239 241 242 240 238 239 241 244 246 248 249 251 252 252 251 249 248 248 249 250 251 253 255 256 257 258 258 259 261 265 269 272 274 277 279 281 284 287 290 292 292 293 293 293 290 287 285 285 285 286 288 291 295 298 302 304 307 309 312 313 313 314 315 317 319 321 322 323 325 326 326 326 327 329
235 234 232 234 237 240 241 240 239 239 241 242 242 241 240 241 242 244 246 247 248 248 248 247 247 246 244 243 244 247 249 252 254 256 256 257 257 257 258 261 265 269 271 273 275 278 281 285 287 290 291 292 292 292 291 288 285 283 283 284 285 288 291 294 297 300 304 307 310 311 312 313 314 315 317 318 320 321 323 325 326 326 326 326 329
242 242 242 242 243 244 245 244 242 242 242 242 241 242 244 244 244 245 245 244 243 242 240 240 241 243 243 242 244 246 250 252 254 255 255 255 256 257 259 261 265 267 269 271 275 278 281 284 286 288 289 289 290 290 289 286 283 282 283 284 287 289 292 294 297 300 304 307 309 311 312 314 315 316 318 319 320 321 323 325 326 326 326 327 328
248 248 248 248 248 248 247 245 241 240 240 241 241 242 243 242 241 241 239 235 233 234 235 237 242 245 247 246 247 249 251 253 253 254 254 255 256 258 260 262 265 267 268 271 274 277 279 282 285 286 287 287 288 287 285 283 281 281 282 284 287 291 293 294 296 300 302 305 307 310 313 315 316 317 319 320 320 322 323 324 325 326 327 327 328
249 249 248 248 248 247 246 243 240 240 241 241 241 240 239 238 238 236 233 230 231 234 237 240 244 247 248 248 249 250 252 253 254 254 255 255 256 257 260 262 264 265 267 270 273 275 278 280 282 283 284 284 284 283 281 280 279 279 280 283 286 290 293 293 294 297 300 302 306 309 312 314 316 317 318 320 320 321 323 324 325 326 328 328 328
249 248 247 245 245 246 247 246 244 242 240 239 240 239 238 236 234 232 231 231 234 238 240 243 246 247 247 248 250 251 252 252 254 255 257 257 256 256 259 261 263 264 267 270 272 274 276 278 278 279 280 280 281 280 279 278 277 277 278 282 285 288 290 291 292 295 299 302 306 309 311 312 314 316 317 318 319 320 321 323 325 327 328 328 328
248 247 246 245 246 247 247 246 244 242 239 237 237 237 236 234 233 233 234 236 240 243 245 246 247 247 248 249 251 252 252 253 255 257 258 258 256 257 259 261 263 265 267 269 270 271 273 274 274 275 276 276 276 276 276 274 273 273 275 279 281 284 288 291 294 297 300 302 305 308 309 311 312 314 316 317 317 318 320 322 324 326 328 328 327
248 247 247 248 248 248 245 242 241 241 240 237 236 236 236 236 236 236 238 240 243 245 245 245 246 247 247 248 250 251 253 255 257 258 258 257 257 258 260 261 262 264 266 267 268 270 271 271 271 271 271 271 272 271 270 269 269 269 271 274 277 281 286 291 295 298 301 302 304 306 307 309 310 312 313 314 315 317 319 321 323 325 326 327 327
247 246 246 246 245 243 241 238 236 236 236 235 235 236 237 237 237 238 240 242 243 243 243 243 244 246 248 249 252 253 255 257 259 259 258 257 258 259 260 261 262 263 265 267 268 269 270 269 268 267 267 267 267 265 263 264 266 267 269 271 274 278 283 288 292 296 299 301 303 305 306 307 309 309 310 312 313 315 317 319 321 323 324 325 326